Orbital Elements at Epoch 2459200.5 (2020-Dec-17.0) TDB
Reference: JPL 33 (heliocentric ecliptic J2000)
Element | Value | Uncertainty (1-sigma) | Units |
e | .1970063069923308 | 3.5443e-08 | |
a | 3.119919365626857 | 1.9187e-08 | au |
q | 2.505275573290854 | 1.1405e-07 | au |
i | 15.31443587798662 | 4.3392e-06 | deg |
node | 249.4374079667356 | 1.8243e-05 | deg |
peri | 239.5464386887804 | 2.2601e-05 | deg |
M | 8.921247246972667 | 1.2462e-05 | deg |
tp | 2459150.618838620703 (2020-Oct-28.11883862) | 6.9675e-05 | TDB |
period | 2012.859592322193 5.51 | 1.8569e-05 5.084e-08 | d yr |
n | .178850030758815 | 1.6499e-09 | deg/d |
Q | 3.734563157962859 | 2.2968e-08 | au |
|
| | Orbit Determination Parameters
Additional Information
|